This is the latest recevied weather packets stored in our database for station/object N1NCB-3. If no packets are shown the sender has not sent any weather packets the latest 10 day(s).
| Time | Temp. | Humidity | Pressure | Rain* | Wind** | Luminosity | Snow |
|---|---|---|---|---|---|---|---|
| 1777479995 | 15° C | 62% | 1013.2 hPa | 0 mm | - | - | - |
| 1777479696 | 15° C | 63% | 1013.5 hPa | 0 mm | - | - | - |
| 1777479395 | 15° C | 64% | 1013.5 hPa | 0 mm | - | - | - |
| 1777479095 | 15° C | 64% | 1013.5 hPa | 0 mm | - | - | - |
| 1777478796 | 14.44° C | 65% | 1013.5 hPa | 0 mm | - | - | - |
| 1777478495 | 14.44° C | 65% | 1013.8 hPa | 0 mm | - | - | - |
| 1777478195 | 13.89° C | 67% | 1013.8 hPa | 0 mm | - | - | - |
| 1777477896 | 13.89° C | 67% | 1013.8 hPa | 0 mm | - | - | - |
| 1777477596 | 13.89° C | 67% | 1013.8 hPa | 0 mm | - | - | - |
| 1777477296 | 13.89° C | 67% | 1014.2 hPa | 0 mm | - | - | - |
| 1777476995 | 13.89° C | 67% | 1014.2 hPa | 0 mm | - | - | - |
| 1777476696 | 13.33° C | 67% | 1014.2 hPa | 0 mm | - | - | - |
| 1777476396 | 13.33° C | 67% | 1014.2 hPa | 0 mm | - | - | - |
| 1777476096 | 13.33° C | 68% | 1014.5 hPa | 0 mm | - | - | - |
| 1777475796 | 13.33° C | 69% | 1014.9 hPa | 0 mm | - | - | - |
| 1777475496 | 13.33° C | 70% | 1014.9 hPa | 0 mm | - | - | - |
| 1777475196 | 12.78° C | 70% | 1015.2 hPa | 0 mm | - | - | - |
| 1777474896 | 12.78° C | 70% | 1015.2 hPa | 0 mm | - | - | - |
| 1777474596 | 12.22° C | 70% | 1015.5 hPa | 0 mm | - | - | - |
| 1777474296 | 12.78° C | 70% | 1015.2 hPa | 0 mm | - | - | - |
| 1777473996 | 12.78° C | 71% | 1015.5 hPa | 0 mm | - | - | - |
| 1777473696 | 12.22° C | 71% | 1015.5 hPa | 0 mm | - | - | - |
| 1777473396 | 12.22° C | 72% | 1015.5 hPa | 0 mm | - | - | - |
| 1777473096 | 12.22° C | 73% | 1015.2 hPa | 0 mm | - | - | - |
| 1777472796 | 11.67° C | 73% | 1015.2 hPa | 0 mm | - | - | - |
* Rain latest hour (hover to see other rain measurements)
** Current wind speed in m/s (hover to see current wind gust speed)